Marshfield, WI

2:53 AM CST on November 18, 2017 (GMT -0600)
Marshfield Municipal

Weather History for KMFI - May, 2014

Change the Weather History Date:

Saturday, May 31, 2014

  Actual Average Record
Temperature  
Mean Temperature 70 °F -  
Max Temperature 84 °F 73 °F 105 °F (1934)
Min Temperature 57 °F 48 °F 35 °F (1966)
Cooling Degree Days 6    
Growing Degree Days 20 (Base 50)    
Moisture  
Dew Point 54 °F    
Average Humidity 54    
Maximum Humidity 77    
Minimum Humidity 33    
Precipitation  
Precipitation 0.11 in - - ()
Sea Level Pressure  
Sea Level Pressure 30.08 in    
Wind  
Wind Speed 7 mph (SSE)    
Max Wind Speed 16 mph    
Max Gust Speed 29 mph    
Visibility 10 miles    
Events Rain , Thunderstorm    
Averages and records for this station are not official NWS values.
T = Trace of Precipitation, MM = Missing Value Source: NWS Daily Summary

Daily Weather History Graph

Daily Weather History Graph

Search for Another Location

Airport or City:

Trip Planner

Search our weather history database for the weather conditions in past years. The results will help you decide how hot, cold, wet, or windy it might be!

Date:

Astronomy

May. 31, 2014 Rise Set
Actual Time 5:19 AM CDT 8:38 PM CDT
Civil Twilight 4:43 AM CDT 9:14 PM CDT
Nautical Twilight 3:56 AM CDT 10:01 PM CDT
Astronomical Twilight 2:58 AM CDT 10:59 PM CDT
Moon 7:59 AM CDT (5/31) 10:52 PM CDT (5/31)
Length of Visible Light 16h 30m
Length of Day
15h 19m
Waxing Crescent, 8% of the Moon is Illuminated
May 31
Waxing Crescent
Jun 5
First Quarter
Jun 12
Full
Jun 19
Last Quarter
Jun 27
New

Hourly Weather History & Observations

Time (CDT) Temp. Heat Index Dew Point Humidity Pressure Visibility Wind Dir Wind Speed Gust Speed Precip Events Conditions
12:54 AM 64.0 °F - 50.0 °F 60% 30.16 in 10.0 mi SSE 4.6 mph - N/A   Clear
1:54 AM 62.1 °F - 50.0 °F 65% 30.16 in 10.0 mi South 5.8 mph - N/A   Clear
2:54 AM 61.0 °F - 50.0 °F 67% 30.16 in 10.0 mi SSE 3.5 mph - N/A   Clear
3:54 AM 60.1 °F - 50.0 °F 69% 30.15 in 10.0 mi SE 4.6 mph - N/A   Clear
4:54 AM 60.1 °F - 50.0 °F 69% 30.15 in 10.0 mi ESE 4.6 mph - N/A   Clear
5:54 AM 57.0 °F - 50.0 °F 77% 30.17 in 10.0 mi Calm Calm - N/A   Clear
6:54 AM 62.1 °F - 53.1 °F 72% 30.16 in 10.0 mi SSE 4.6 mph - N/A   Clear
7:54 AM 64.9 °F - 54.0 °F 68% 30.16 in 10.0 mi South 10.4 mph - N/A   Clear
8:54 AM 69.1 °F - 55.0 °F 61% 30.15 in 10.0 mi South 10.4 mph - N/A   Clear
10:54 AM 77.0 °F - 57.9 °F 52% 30.13 in 10.0 mi South 9.2 mph - N/A   Clear
11:54 AM 80.1 °F 80.4 °F 57.0 °F 45% 30.12 in 10.0 mi South 11.5 mph - N/A   Clear
12:54 PM 82.0 °F 81.6 °F 55.9 °F 41% 30.11 in 10.0 mi SSE 9.2 mph - N/A   Clear
1:54 PM 84.0 °F 82.9 °F 55.0 °F 37% 30.08 in 10.0 mi SSE 16.1 mph - N/A   Clear
2:54 PM 84.0 °F - 52.0 °F 33% 30.06 in 10.0 mi SSE 15.0 mph - N/A   Clear
3:54 PM 84.9 °F 83.2 °F 53.1 °F 33% 30.03 in 10.0 mi SSE 12.7 mph 18.4 mph N/A   Clear
4:54 PM 84.0 °F 82.5 °F 53.1 °F 34% 30.01 in 10.0 mi SSE 12.7 mph - N/A   Clear
5:54 PM 84.0 °F 82.5 °F 53.1 °F 34% 30.01 in 10.0 mi South 11.5 mph - N/A   Clear
6:54 PM 81.0 °F 80.5 °F 54.0 °F 39% 29.99 in 10.0 mi South 11.5 mph - N/A   Clear
7:54 PM 77.0 °F - 57.9 °F 52% 30.00 in 10.0 mi South 8.1 mph - N/A   Clear
8:54 PM 75.0 °F - 59.0 °F 57% 29.98 in 10.0 mi SE 4.6 mph - N/A   Partly Cloudy
9:54 PM 73.0 °F - 57.0 °F 57% 29.99 in 10.0 mi SSE 4.6 mph - N/A   Overcast
11:34 PM 73.0 °F - 55.0 °F 53% 30.00 in 10.0 mi South 10.4 mph - N/A Thunderstorm Overcast
11:54 PM 69.1 °F - 60.1 °F 73% 30.02 in 2.5 mi SSW 11.5 mph 28.8 mph 0.11 in Rain , Thunderstorm Heavy Thunderstorms and Rain